Location: Cosy Dell
(34.2789°N, 117.4537°W)
Time: 12:30:29
(UTC+00:00)

Cosmos 2278 - Pass Details

Date: 14 July 2020
Orbit: 838 x 854 km, 71.1° (Epoch: 08 August)

Event Time Altitude Azimuth Distance (km) Brightness Sun altitude
Rises 10:32:51 0° 340° (NNW) 3,428 7.3 -22.8°
Reaches altitude 10° 10:35:19 10° 342° (NNW) 2,488 6.5 -22.5°
Maximum altitude 10:41:02 76° 69° (ENE) 880 3.8 -21.7°
Drops below altitude 10° 10:46:43 10° 155° (SSE) 2,471 5.9 -20.9°
Enters shadow 10:47:42 - 156° (SSE) 2,841 6.2 -20.8°
